| time (UTC) | temp F | wind direction | speed knots | gust knots | rain 1hr in | rain 24hr in | rain mn in | humidity % | barometer mb |
| 20260507073818 | 48 | 145 | 6.1 | 16.5 | 0.00 | 0.00 | 0.00 | 42 | 1024.0 |
| 20260507073121 | 49 | 156 | 7.8 | 16.5 | 0.00 | 0.00 | 0.00 | 42 | 1023.8 |
| 20260507072441 | 48 | 150 | 7.0 | 14.8 | 0.00 | 0.00 | 0.00 | 42 | 1023.9 |
| 20260507071817 | 48 | 156 | 6.1 | 13.9 | 0.00 | 0.00 | 0.00 | 43 | 1023.9 |
| 20260507071136 | 48 | 153 | 7.8 | 13.9 | 0.00 | 0.00 | 0.00 | 43 | 1024.0 |
| 20260507070441 | 48 | 151 | 7.0 | 12.2 | 0.00 | 0.00 | 0.00 | 42 | 1024.0 |
| 20260507065801 | 48 | 130 | 6.1 | 9.6 | 0.00 | 0.00 | 0.00 | 42 | 1023.9 |
| 20260507065122 | 49 | 123 | 5.2 | 9.6 | 0.00 | 0.00 | 0.00 | 41 | 1023.8 |
| 20260507064441 | 49 | 103 | 3.5 | 9.6 | 0.00 | 0.00 | 0.00 | 41 | 1023.8 |
| 20260507063816 | 49 | 85 | 5.2 | 10.4 | 0.00 | 0.00 | 0.00 | 40 | 1023.7 |
| 20260507063136 | 50 | 84 | 5.2 | 9.6 | 0.00 | 0.00 | 0.00 | 39 | 1023.7 |
| 20260507062511 | 50 | 81 | 5.2 | 7.8 | 0.00 | 0.00 | 0.00 | 40 | 1023.8 |
| 20260507061801 | 50 | 76 | 4.3 | 5.2 | 0.00 | 0.00 | 0.00 | 45 | 1023.7 |
| 20260507061122 | 49 | 68 | 3.5 | 5.2 | 0.00 | 0.00 | 0.00 | 45 | 1023.7 |
| 20260507060441 | 49 | 55 | 2.6 | 5.2 | 0.00 | 0.00 | 0.00 | 45 | 1023.6 |
| 20260507055802 | 50 | 81 | 3.5 | 5.2 | 0.00 | 0.00 | 0.00 | 44 | 1023.7 |
| 20260507055121 | 51 | 71 | 2.6 | 6.1 | 0.00 | 0.00 | 0.00 | 42 | 1023.8 |
| 20260507054442 | 49 | 79 | 3.5 | 6.1 | 0.00 | 0.00 | 0.00 | 46 | 1023.7 |
| 20260507053802 | 49 | 86 | 3.5 | 4.3 | 0.00 | 0.00 | 0.00 | 45 | 1023.7 |
| 20260507053121 | 49 | 25 | 1.7 | 3.5 | 0.00 | 0.00 | 0.00 | 46 | 1023.6 |
| 20260507052456 | 50 | 5 | 0.9 | 4.3 | 0.00 | 0.00 | 0.00 | 45 | 1023.6 |
| 20260507051816 | 50 | 305 | 2.6 | 4.3 | 0.00 | 0.00 | 0.00 | 45 | 1023.6 |
| 20260507051121 | 50 | 291 | 1.7 | 4.3 | 0.00 | 0.00 | 0.00 | 45 | 1023.5 |
| 20260507050441 | 50 | 68 | 2.6 | 4.3 | 0.00 | 0.00 | 0.00 | 45 | 1023.5 |
| 20260507045801 | 50 | 338 | 2.6 | 5.2 | 0.00 | 0.00 | 0.00 | 44 | 1023.4 |
| 20260507045122 | 50 | 20 | 1.7 | 6.1 | 0.00 | 0.00 | 0.00 | 45 | 1023.3 |
| 20260507044456 | 50 | 18 | 2.6 | 6.1 | 0.00 | 0.00 | 0.00 | 45 | 1023.3 |
| 20260507043816 | 50 | 21 | 2.6 | 6.1 | 0.00 | 0.00 | 0.00 | 44 | 1023.3 |
| 20260507043136 | 50 | 1 | 2.6 | 6.1 | 0.00 | 0.00 | 0.00 | 44 | 1023.1 |
| 20260507042441 | 50 | 338 | 2.6 | 6.1 | 0.00 | 0.00 | 0.00 | 44 | 1023.1 |
| 20260507041801 | 51 | 357 | 2.6 | 6.1 | 0.00 | 0.00 | 0.00 | 43 | 1023.0 |
| 20260507041121 | 51 | 351 | 2.6 | 7.0 | 0.00 | 0.00 | 0.00 | 43 | 1022.8 |
| 20260507040511 | 51 | 335 | 3.5 | 8.7 | 0.00 | 0.00 | 0.00 | 43 | 1022.9 |
| 20260507035801 | 51 | 335 | 5.2 | 8.7 | 0.00 | 0.00 | 0.00 | 43 | 1022.8 |
| 20260507035121 | 51 | 343 | 4.3 | 9.6 | 0.00 | 0.00 | 0.00 | 43 | 1022.8 |
| 20260507034441 | 51 | 332 | 4.3 | 9.6 | 0.00 | 0.00 | 0.00 | 43 | 1022.7 |
| 20260507033802 | 52 | 339 | 4.3 | 8.7 | 0.00 | 0.00 | 0.00 | 42 | 1022.7 |
| 20260507033151 | 52 | 342 | 3.5 | 10.4 | 0.00 | 0.00 | 0.00 | 42 | 1022.7 |
| 20260507032442 | 52 | 346 | 4.3 | 10.4 | 0.00 | 0.00 | 0.00 | 41 | 1022.6 |
| 20260507031816 | 52 | 333 | 4.3 | 8.7 | 0.00 | 0.00 | 0.00 | 41 | 1022.5 |
| 20260507031121 | 52 | 336 | 3.5 | 8.7 | 0.00 | 0.00 | 0.00 | 40 | 1022.4 |
| 20260507030456 | 53 | 348 | 4.3 | 13.0 | 0.00 | 0.00 | 0.00 | 38 | 1022.3 |
| 20260507025801 | 54 | 348 | 3.5 | 8.7 | 0.00 | 0.00 | 0.00 | 36 | 1022.2 |
| 20260507025121 | 54 | 8 | 2.6 | 7.0 | 0.00 | 0.00 | 0.00 | 36 | 1022.1 |
| 20260507024442 | 54 | 13 | 2.6 | 7.0 | 0.00 | 0.00 | 0.00 | 36 | 1022.0 |
| 20260507023801 | 55 | 5 | 2.6 | 5.2 | 0.00 | 0.00 | 0.00 | 36 | 1021.8 |
| 20260507023121 | 55 | 352 | 2.6 | 5.2 | 0.00 | 0.00 | 0.00 | 35 | 1021.8 |
| 20260507022441 | 55 | 347 | 2.6 | 4.3 | 0.00 | 0.00 | 0.00 | 35 | 1021.7 |
| 20260507021801 | 55 | 356 | 2.6 | 4.3 | 0.00 | 0.00 | 0.00 | 35 | 1021.8 |
| 20260507021122 | 55 | 8 | 1.7 | 5.2 | 0.00 | 0.00 | 0.00 | 35 | 1021.7 |
| 20260507020441 | 55 | 347 | 2.6 | 5.2 | 0.00 | 0.00 | 0.00 | 35 | 1021.6 |
| 20260507015801 | 55 | 340 | 1.7 | 5.2 | 0.00 | 0.00 | 0.00 | 36 | 1021.5 |
| 20260507015121 | 56 | 342 | 1.7 | 7.0 | 0.00 | 0.00 | 0.00 | 35 | 1021.4 |
| 20260507014511 | 57 | 338 | 3.5 | 7.0 | 0.00 | 0.00 | 0.00 | 34 | 1021.3 |
| 20260507013801 | 56 | 348 | 3.5 | 7.8 | 0.00 | 0.00 | 0.00 | 34 | 1021.4 |
| 20260507013121 | 57 | 347 | 4.3 | 8.7 | 0.00 | 0.00 | 0.00 | 34 | 1021.3 |
| 20260507012441 | 58 | 348 | 3.5 | 7.0 | 0.00 | 0.00 | 0.00 | 34 | 1021.4 |
| 20260507011801 | 59 | 328 | 2.6 | 9.6 | 0.00 | 0.00 | 0.00 | 32 | 1021.3 |
| 20260507011121 | 59 | 330 | 4.3 | 10.4 | 0.00 | 0.00 | 0.00 | 33 | 1021.2 |
| 20260507010441 | 60 | 327 | 3.5 | 10.4 | 0.00 | 0.00 | 0.00 | 32 | 1021.1 |
| 20260507005801 | 60 | 329 | 2.6 | 12.2 | 0.00 | 0.00 | 0.00 | 32 | 1021.0 |
| 20260507005121 | 59 | 312 | 4.3 | 12.2 | 0.00 | 0.00 | 0.00 | 31 | 1021.0 |
| 20260507004456 | 59 | 351 | 4.3 | 11.3 | 0.00 | 0.00 | 0.00 | 31 | 1020.9 |
| 20260507003816 | 59 | 334 | 4.3 | 11.3 | 0.00 | 0.00 | 0.00 | 32 | 1020.9 |
| 20260507003122 | 60 | 314 | 5.2 | 11.3 | 0.00 | 0.00 | 0.00 | 32 | 1020.9 |
| 20260507002456 | 60 | 332 | 4.3 | 12.2 | 0.00 | 0.00 | 0.00 | 31 | 1020.8 |
| 20260507001801 | 59 | 319 | 5.2 | 12.2 | 0.00 | 0.00 | 0.00 | 32 | 1020.9 |
| 20260507001136 | 60 | 346 | 2.6 | 14.8 | 0.00 | 0.00 | 0.00 | 33 | 1020.9 |
| 20260507000511 | 60 | 318 | 7.0 | 14.8 | 0.00 | 0.00 | 0.00 | 32 | 1020.7 |
| 20260506235801 | 60 | 29 | 3.5 | 8.7 | 0.00 | 0.00 | 0.00 | 31 | 1020.8 |
| 20260506235121 | 62 | 359 | 2.6 | 13.0 | 0.00 | 0.00 | 0.00 | 31 | 1020.6 |
| 20260506234441 | 60 | 351 | 5.2 | 13.0 | 0.00 | 0.00 | 0.00 | 32 | 1020.7 |
| 20260506233801 | 60 | 311 | 3.5 | 10.4 | 0.00 | 0.00 | 0.00 | 33 | 1020.7 |
| 20260506233121 | 59 | 349 | 4.3 | 11.3 | 0.00 | 0.00 | 0.00 | 32 | 1020.8 |
| 20260506232443 | 60 | 317 | 5.2 | 12.2 | 0.00 | 0.00 | 0.00 | 35 | 1020.5 |
| 20260506231802 | 60 | 324 | 6.1 | 14.8 | 0.00 | 0.00 | 0.00 | 32 | 1020.6 |
| 20260506231136 | 60 | 345 | 3.5 | 16.5 | 0.00 | 0.00 | 0.00 | 34 | 1020.6 |
| 20260506230511 | 60 | 341 | 7.0 | 16.5 | 0.00 | 0.00 | 0.00 | 32 | 1020.6 |
| 20260506225802 | 61 | 357 | 2.6 | 13.0 | 0.00 | 0.00 | 0.00 | 32 | 1020.5 |
| 20260506225136 | 60 | 358 | 4.3 | 9.6 | 0.00 | 0.00 | 0.00 | 33 | 1020.6 |
| 20260506224456 | 59 | 36 | 3.5 | 8.7 | 0.00 | 0.00 | 0.00 | 35 | 1020.6 |
| 20260506223801 | 58 | 318 | 3.5 | 13.0 | 0.00 | 0.00 | 0.00 | 36 | 1020.6 |
| 20260506223137 | 60 | 355 | 4.3 | 13.0 | 0.00 | 0.00 | 0.00 | 34 | 1020.6 |
| 20260506222441 | 60 | 345 | 6.1 | 20.9 | 0.00 | 0.00 | 0.00 | 35 | 1020.7 |
| 20260506221801 | 58 | 334 | 7.8 | 20.9 | 0.00 | 0.00 | 0.00 | 36 | 1020.5 |
| 20260506221121 | 58 | 359 | 4.3 | 20.9 | 0.00 | 0.00 | 0.00 | 36 | 1020.5 |
| 20260506220441 | 58 | 343 | 7.0 | 20.9 | 0.00 | 0.00 | 0.00 | 36 | 1020.7 |
| 20260506215801 | 58 | 340 | 5.2 | 18.2 | 0.00 | 0.00 | 0.00 | 37 | 1020.8 |
| 20260506215121 | 57 | 314 | 8.7 | 18.2 | 0.00 | 0.00 | 0.00 | 37 | 1020.9 |
| 20260506214456 | 58 | 333 | 5.2 | 15.6 | 0.00 | 0.00 | 0.00 | 38 | 1021.0 |
| 20260506213802 | 58 | 331 | 5.2 | 14.8 | 0.00 | 0.00 | 0.00 | 38 | 1021.0 |
| 20260506213136 | 57 | 307 | 3.5 | 19.1 | 0.00 | 0.00 | 0.00 | 40 | 1020.9 |
| 20260506212441 | 57 | 314 | 8.7 | 19.1 | 0.00 | 0.00 | 0.00 | 39 | 1021.1 |
| 20260506211801 | 56 | 313 | 4.3 | 17.4 | 0.00 | 0.00 | 0.00 | 41 | 1021.0 |
| 20260506211121 | 56 | 302 | 7.8 | 17.4 | 0.00 | 0.00 | 0.00 | 39 | 1021.1 |
| 20260506210442 | 56 | 313 | 7.8 | 13.0 | 0.00 | 0.00 | 0.00 | 40 | 1021.1 |
| 20260506205802 | 57 | 308 | 6.1 | 11.3 | 0.00 | 0.00 | 0.00 | 40 | 1021.3 |
| 20260506205121 | 59 | 349 | 3.5 | 11.3 | 0.00 | 0.00 | 0.00 | 42 | 1021.3 |
| 20260506204441 | 56 | 342 | 3.5 | 14.8 | 0.00 | 0.00 | 0.00 | 43 | 1021.0 |
| 20260506203817 | 55 | 294 | 7.8 | 16.5 | 0.00 | 0.00 | 0.00 | 40 | 1021.1 |
| 20260506203136 | 56 | 335 | 7.0 | 13.0 | 0.00 | 0.00 | 0.00 | 41 | 1021.0 |
| 20260506202456 | 55 | 320 | 7.0 | 14.8 | 0.00 | 0.00 | 0.00 | 41 | 1021.1 |
| 20260506201801 | 55 | 328 | 7.0 | 13.0 | 0.00 | 0.00 | 0.00 | 42 | 1021.1 |
| 20260506201151 | 55 | 315 | 7.0 | 13.9 | 0.00 | 0.00 | 0.00 | 42 | 1021.0 |
| 20260506200456 | 56 | 13 | 3.5 | 9.6 | 0.00 | 0.00 | 0.00 | 42 | 1021.0 |
| 20260506195801 | 56 | 329 | 2.6 | 13.9 | 0.00 | 0.00 | 0.00 | 47 | 1021.0 |
| 20260506195138 | 53 | 283 | 6.1 | 13.9 | 0.00 | 0.00 | 0.00 | 44 | 1021.0 |
| 20260506194441 | 55 | 284 | 6.1 | 15.6 | 0.00 | 0.00 | 0.00 | 43 | 1021.0 |
| 20260506193801 | 54 | 321 | 5.2 | 13.0 | 0.00 | 0.00 | 0.00 | 44 | 1021.0 |
| 20260506193123 | 54 | 278 | 5.2 | 13.0 | 0.00 | 0.00 | 0.00 | 46 | 1021.0 |
| 20260506192441 | 53 | 324 | 3.5 | 12.2 | 0.00 | 0.00 | 0.00 | 44 | 1021.0 |
| 20260506191816 | 53 | 304 | 6.1 | 14.8 | 0.00 | 0.00 | 0.00 | 45 | 1021.0 |
| 20260506191136 | 52 | 290 | 6.1 | 11.3 | 0.00 | 0.00 | 0.00 | 47 | 1020.8 |
| 20260506190442 | 53 | 349 | 3.5 | 12.2 | 0.00 | 0.00 | 0.00 | 48 | 1021.0 |
| 20260506185801 | 53 | 326 | 5.2 | 15.6 | 0.00 | 0.00 | 0.00 | 45 | 1021.0 |
| 20260506185121 | 52 | 316 | 7.8 | 13.9 | 0.00 | 0.00 | 0.00 | 47 | 1021.1 |
| 20260506184441 | 51 | 299 | 3.5 | 13.0 | 0.00 | 0.00 | 0.00 | 46 | 1021.1 |
| 20260506183801 | 52 | 313 | 5.2 | 13.0 | 0.00 | 0.00 | 0.00 | 47 | 1021.0 |
| 20260506183121 | 52 | 319 | 5.2 | 13.0 | 0.00 | 0.00 | 0.00 | 47 | 1021.2 |
| 20260506182441 | 53 | 304 | 3.5 | 13.0 | 0.00 | 0.00 | 0.00 | 45 | 1021.1 |
| 20260506181816 | 52 | 317 | 6.1 | 13.0 | 0.00 | 0.00 | 0.00 | 45 | 1021.3 |
| 20260506181121 | 49 | 295 | 6.1 | 13.0 | 0.00 | 0.00 | 0.00 | 47 | 1021.1 |
| 20260506180457 | 50 | 330 | 6.1 | 11.3 | 0.00 | 0.00 | 0.00 | 47 | 1021.2 |
| 20260506175801 | 51 | 322 | 6.1 | 13.0 | 0.00 | 0.00 | 0.00 | 48 | 1020.9 |
| 20260506175136 | 49 | 312 | 4.3 | 14.8 | 0.00 | 0.00 | 0.00 | 50 | 1021.0 |
| 20260506174457 | 50 | 343 | 4.3 | 14.8 | 0.00 | 0.00 | 0.00 | 48 | 1021.2 |
| 20260506173801 | 50 | 321 | 5.2 | 11.3 | 0.00 | 0.00 | 0.00 | 47 | 1021.0 |
| 20260506173121 | 49 | 334 | 3.5 | 11.3 | 0.00 | 0.00 | 0.00 | 49 | 1020.9 |
| 20260506172441 | 49 | 321 | 4.3 | 11.3 | 0.00 | 0.00 | 0.00 | 49 | 1020.9 |
| 20260506171801 | 49 | 349 | 4.3 | 9.6 | 0.00 | 0.00 | 0.00 | 49 | 1020.7 |
| 20260506171122 | 49 | 344 | 2.6 | 11.3 | 0.00 | 0.00 | 0.00 | 52 | 1020.8 |
| 20260506170457 | 47 | 294 | 5.2 | 13.0 | 0.00 | 0.00 | 0.00 | 52 | 1020.7 |
| 20260506165802 | 47 | 346 | 4.3 | 15.6 | 0.00 | 0.00 | 0.00 | 52 | 1020.6 |
| 20260506165136 | 47 | 313 | 8.7 | 15.6 | 0.00 | 0.00 | 0.00 | 52 | 1020.6 |
| 20260506164441 | 48 | 326 | 5.2 | 13.0 | 0.00 | 0.00 | 0.00 | 52 | 1020.5 |
| 20260506163817 | 49 | 326 | 4.3 | 10.4 | 0.00 | 0.00 | 0.00 | 52 | 1020.5 |
| 20260506163122 | 47 | 324 | 6.1 | 11.3 | 0.00 | 0.00 | 0.00 | 52 | 1020.6 |
| 20260506162457 | 47 | 322 | 3.5 | 10.4 | 0.00 | 0.00 | 0.00 | 53 | 1020.4 |
| 20260506161802 | 47 | 351 | 4.3 | 12.2 | 0.00 | 0.00 | 0.00 | 54 | 1020.3 |
| 20260506161121 | 46 | 335 | 6.1 | 12.2 | 0.00 | 0.00 | 0.00 | 53 | 1020.3 |
| 20260506160441 | 46 | 333 | 4.3 | 11.3 | 0.00 | 0.00 | 0.00 | 53 | 1020.3 |
| 20260506155801 | 45 | 346 | 6.1 | 14.8 | 0.00 | 0.00 | 0.00 | 52 | 1020.2 |
| 20260506155122 | 45 | 345 | 3.5 | 11.3 | 0.00 | 0.00 | 0.00 | 55 | 1020.2 |
| 20260506154511 | 45 | 337 | 5.2 | 11.3 | 0.00 | 0.00 | 0.00 | 54 | 1020.2 |
| 20260506153801 | 45 | 340 | 5.2 | 13.0 | 0.00 | 0.00 | 0.00 | 54 | 1020.1 |
| 20260506153121 | 45 | 344 | 3.5 | 11.3 | 0.00 | 0.00 | 0.00 | 55 | 1020.1 |
| 20260506152456 | 45 | 339 | 5.2 | 11.3 | 0.00 | 0.00 | 0.00 | 54 | 1020.0 |
| 20260506151816 | 44 | 350 | 5.2 | 11.3 | 0.00 | 0.00 | 0.00 | 55 | 1020.0 |
| 20260506151136 | 44 | 344 | 3.5 | 12.2 | 0.00 | 0.00 | 0.00 | 57 | 1019.9 |
| 20260506150442 | 44 | 336 | 4.3 | 10.4 | 0.00 | 0.00 | 0.00 | 56 | 1019.8 |
| 20260506145801 | 43 | 346 | 5.2 | 11.3 | 0.00 | 0.00 | 0.00 | 55 | 1019.7 |
| 20260506145137 | 43 | 341 | 5.2 | 12.2 | 0.00 | 0.00 | 0.00 | 56 | 1019.8 |
| 20260506144441 | 42 | 341 | 6.1 | 12.2 | 0.00 | 0.00 | 0.00 | 57 | 1019.6 |
| 20260506143801 | 42 | 356 | 3.5 | 10.4 | 0.00 | 0.00 | 0.00 | 60 | 1019.6 |
| 20260506143121 | 41 | 358 | 3.5 | 8.7 | 0.00 | 0.00 | 0.00 | 61 | 1019.6 |
| 20260506142442 | 40 | 358 | 3.5 | 8.7 | 0.00 | 0.00 | 0.00 | 62 | 1019.4 |
| 20260506141801 | 40 | 2 | 3.5 | 8.7 | 0.00 | 0.00 | 0.00 | 62 | 1019.3 |
| 20260506141151 | 39 | 16 | 3.5 | 7.8 | 0.00 | 0.00 | 0.00 | 63 | 1019.4 |
| 20260506140511 | 39 | 11 | 2.6 | 7.0 | 0.00 | 0.00 | 0.00 | 63 | 1019.3 |
| 20260506135816 | 39 | 17 | 2.6 | 10.4 | 0.00 | 0.00 | 0.00 | 64 | 1019.3 |
| 20260506135121 | 39 | 13 | 2.6 | 7.0 | 0.00 | 0.00 | 0.00 | 65 | 1019.3 |
| 20260506134456 | 39 | 30 | 2.6 | 7.8 | 0.00 | 0.00 | 0.00 | 65 | 1019.3 |
| 20260506133801 | 38 | 27 | 2.6 | 8.7 | 0.00 | 0.00 | 0.00 | 65 | 1019.2 |
| 20260506133151 | 38 | 32 | 2.6 | 8.7 | 0.00 | 0.00 | 0.00 | 66 | 1019.1 |
| 20260506132511 | 38 | 17 | 2.6 | 9.6 | 0.00 | 0.00 | 0.00 | 67 | 1018.9 |
| 20260506131801 | 38 | 19 | 3.5 | 7.8 | 0.00 | 0.00 | 0.00 | 67 | 1019.0 |
| 20260506131121 | 37 | 30 | 2.6 | 7.8 | 0.00 | 0.00 | 0.00 | 68 | 1018.8 |
| 20260506130442 | 37 | 35 | 2.6 | 7.8 | 0.00 | 0.00 | 0.00 | 68 | 1018.8 |
| 20260506125831 | 37 | 33 | 2.6 | 8.7 | 0.00 | 0.00 | 0.00 | 69 | 1018.7 |
| 20260506125121 | 37 | 26 | 2.6 | 7.0 | 0.00 | 0.00 | 0.00 | 69 | 1018.6 |
| 20260506124441 | 36 | 35 | 2.6 | 6.1 | 0.00 | 0.00 | 0.00 | 69 | 1018.5 |
| 20260506123801 | 36 | 34 | 2.6 | 5.2 | 0.00 | 0.00 | 0.00 | 69 | 1018.5 |
| 20260506123136 | 36 | 32 | 1.7 | 5.2 | 0.00 | 0.00 | 0.00 | 69 | 1018.5 |
| 20260506122441 | 36 | 46 | 1.7 | 5.2 | 0.00 | 0.00 | 0.00 | 69 | 1018.4 |
| 20260506121831 | 37 | 31 | 2.6 | 5.2 | 0.00 | 0.00 | 0.00 | 69 | 1018.1 |
| 20260506121137 | 37 | 13 | 2.6 | 5.2 | 0.00 | 0.00 | 0.00 | 69 | 1018.4 |
| 20260506120511 | 36 | 30 | 1.7 | 7.8 | 0.00 | 0.00 | 0.00 | 70 | 1018.3 |
| 20260506115802 | 36 | 7 | 2.6 | 7.8 | 0.00 | 0.00 | 0.00 | 69 | 1018.1 |
| 20260506115121 | 37 | 9 | 3.5 | 6.1 | 0.00 | 0.00 | 0.00 | 69 | 1018.1 |
| 20260506114441 | 37 | 358 | 2.6 | 7.0 | 0.00 | 0.00 | 0.00 | 69 | 1018.1 |
| 20260506113817 | 36 | 4 | 2.6 | 6.1 | 0.00 | 0.00 | 0.00 | 69 | 1018.2 |
| 20260506113122 | 37 | 1 | 3.5 | 7.0 | 0.00 | 0.00 | 0.00 | 69 | 1018.2 |
| 20260506112441 | 37 | 355 | 3.5 | 7.8 | 0.00 | 0.00 | 0.00 | 68 | 1018.1 |
| 20260506111801 | 37 | 351 | 4.3 | 7.8 | 0.00 | 0.00 | 0.00 | 68 | 1018.0 |
| 20260506111121 | 37 | 353 | 3.5 | 7.8 | 0.00 | 0.00 | 0.00 | 68 | 1017.9 |
| 20260506110441 | 37 | 358 | 3.5 | 9.6 | 0.00 | 0.00 | 0.00 | 68 | 1017.9 |
| 20260506105802 | 37 | 359 | 3.5 | 8.7 | 0.00 | 0.00 | 0.00 | 67 | 1017.9 |
| 20260506105121 | 37 | 6 | 4.3 | 8.7 | 0.00 | 0.00 | 0.00 | 67 | 1017.9 |
| 20260506104442 | 37 | 346 | 4.3 | 8.7 | 0.00 | 0.00 | 0.00 | 67 | 1017.9 |
| 20260506103802 | 37 | 359 | 3.5 | 9.6 | 0.00 | 0.00 | 0.00 | 67 | 1017.8 |
| 20260506103122 | 37 | 355 | 3.5 | 9.6 | 0.00 | 0.00 | 0.00 | 67 | 1017.8 |
| 20260506102456 | 37 | 2 | 3.5 | 9.6 | 0.00 | 0.00 | 0.00 | 67 | 1017.8 |
| 20260506101801 | 37 | 7 | 4.3 | 9.6 | 0.00 | 0.00 | 0.00 | 67 | 1017.9 |
| 20260506101136 | 37 | 350 | 4.3 | 11.3 | 0.00 | 0.00 | 0.00 | 67 | 1017.9 |
| 20260506100441 | 37 | 8 | 4.3 | 11.3 | 0.00 | 0.00 | 0.00 | 68 | 1017.7 |
| 20260506095801 | 37 | 15 | 3.5 | 8.7 | 0.00 | 0.00 | 0.00 | 68 | 1017.7 |
| 20260506095136 | 37 | 15 | 3.5 | 9.6 | 0.00 | 0.00 | 0.00 | 68 | 1017.7 |
| 20260506094442 | 37 | 360 | 4.3 | 10.4 | 0.00 | 0.00 | 0.00 | 67 | 1017.6 |
| 20260506093816 | 37 | 1 | 3.5 | 10.4 | 0.00 | 0.00 | 0.00 | 69 | 1017.5 |
| 20260506093122 | 37 | 1 | 4.3 | 10.4 | 0.00 | 0.00 | 0.00 | 69 | 1017.5 |
| 20260506092441 | 38 | 346 | 5.2 | 11.3 | 0.00 | 0.00 | 0.00 | 69 | 1017.4 |
| 20260506091816 | 38 | 344 | 5.2 | 11.3 | 0.00 | 0.00 | 0.00 | 69 | 1017.6 |
| 20260506091137 | 38 | 348 | 5.2 | 10.4 | 0.00 | 0.00 | 0.00 | 69 | 1017.5 |
| 20260506090456 | 38 | 340 | 6.1 | 9.6 | 0.00 | 0.00 | 0.00 | 70 | 1017.6 |
| 20260506085801 | 38 | 339 | 4.3 | 8.7 | 0.00 | 0.00 | 0.00 | 71 | 1017.5 |
| 20260506085136 | 37 | 328 | 4.3 | 8.7 | 0.00 | 0.00 | 0.00 | 71 | 1017.5 |
| 20260506084441 | 38 | 338 | 5.2 | 9.6 | 0.00 | 0.00 | 0.00 | 71 | 1017.5 |
| 20260506083831 | 37 | 343 | 4.3 | 9.6 | 0.00 | 0.00 | 0.00 | 71 | 1017.5 |
| 20260506083121 | 38 | 337 | 4.3 | 9.6 | 0.00 | 0.00 | 0.00 | 71 | 1017.6 |
| 20260506082442 | 37 | 338 | 4.3 | 9.6 | 0.00 | 0.00 | 0.00 | 72 | 1017.4 |
| 20260506081801 | 38 | 333 | 4.3 | 9.6 | 0.00 | 0.00 | 0.00 | 72 | 1017.5 |
| 20260506081121 | 37 | 327 | 4.3 | 7.8 | 0.00 | 0.00 | 0.00 | 72 | 1017.5 |
| 20260506080456 | 37 | 335 | 3.5 | 8.7 | 0.00 | 0.00 | 0.00 | 73 | 1017.6 |